Time,TemperatureF,DewpointF,PressureIn,WindDirection,WindDirectionDegrees,WindSpeedMPH,WindSpeedGustMPH,Humidity,HourlyPrecipIn,Conditions,Clouds,dailyrainin,SoftwareType,DateUTC
2013-03-16 00:00:00,40.5,0.3,29.74,WSW,238,0.0,0.0,18,0.00,,---,0.00,VWS V14.01,2013-03-16 04:00:00,
2013-03-16 00:05:00,40.3,0.2,29.74,WSW,238,0.0,0.0,18,0.00,,---,0.00,VWS V14.01,2013-03-16 04:05:00,
2013-03-16 00:10:00,40.3,0.2,29.74,WSW,238,0.0,0.0,18,0.00,,---,0.00,VWS V14.01,2013-03-16 04:10:00,
2013-03-16 00:15:00,39.9,-0.1,29.74,WSW,238,0.0,0.0,18,0.00,,---,0.00,VWS V14.01,2013-03-16 04:15:00,
2013-03-16 00:20:00,39.7,-0.3,29.74,WSW,238,0.0,0.0,18,0.00,,---,0.00,VWS V14.01,2013-03-16 04:20:00,
2013-03-16 00:25:00,39.6,-0.4,29.74,WSW,238,0.0,0.0,18,0.00,,---,0.00,VWS V14.01,2013-03-16 04:25:00,
2013-03-16 00:30:00,39.4,-0.6,29.74,WSW,238,0.0,0.0,18,0.00,,---,0.00,VWS V14.01,2013-03-16 04:30:00,
2013-03-16 00:35:00,39.2,-0.7,29.74,WSW,238,0.0,0.0,18,0.00,,---,0.00,VWS V14.01,2013-03-16 04:35:00,
2013-03-16 00:40:00,38.8,0.1,29.74,WSW,238,0.0,0.0,19,0.00,,---,0.00,VWS V14.01,2013-03-16 04:40:00,
2013-03-16 00:45:00,38.7,2.1,29.74,WSW,238,0.0,0.0,21,0.00,,---,0.00,VWS V14.01,2013-03-16 04:45:00,
2013-03-16 00:50:00,38.5,2.0,29.74,WSW,238,0.0,0.0,21,0.00,,---,0.00,VWS V14.01,2013-03-16 04:50:00,
2013-03-16 00:55:00,38.3,1.8,29.74,WSW,238,0.0,0.0,21,0.00,,---,0.00,VWS V14.01,2013-03-16 04:55:00,
2013-03-16 01:00:00,38.1,1.6,29.74,WSW,238,0.0,0.0,21,0.00,,---,0.00,VWS V14.01,2013-03-16 05:00:00,
2013-03-16 01:05:00,38.1,4.5,29.74,WSW,238,0.0,0.0,24,0.00,,---,0.00,VWS V14.01,2013-03-16 05:05:00,
2013-03-16 01:10:00,37.6,4.1,29.74,WSW,238,0.0,0.0,24,0.00,,---,0.00,VWS V14.01,2013-03-16 05:10:00,
2013-03-16 01:15:00,37.4,5.7,29.74,WSW,238,0.0,0.0,26,0.00,,---,0.00,VWS V14.01,2013-03-16 05:15:00,
2013-03-16 01:20:00,37.2,6.3,29.74,WSW,238,0.0,0.0,27,0.00,,---,0.00,VWS V14.01,2013-03-16 05:20:00,
2013-03-16 01:25:00,37.0,7.8,29.74,WSW,238,0.0,0.0,29,0.00,,---,0.00,VWS V14.01,2013-03-16 05:25:00,
2013-03-16 01:30:00,37.0,7.8,29.74,WSW,238,0.0,0.0,29,0.00,,---,0.00,VWS V14.01,2013-03-16 05:30:00,
2013-03-16 01:35:00,37.4,8.1,29.74,WSW,238,0.0,0.0,29,0.00,,---,0.00,VWS V14.01,2013-03-16 05:35:00,
2013-03-16 01:40:00,37.6,9.0,29.74,WSW,238,0.0,0.0,30,0.00,,---,0.00,VWS V14.01,2013-03-16 05:40:00,
2013-03-16 01:45:00,37.6,9.0,29.74,WSW,238,0.0,0.0,30,0.00,,---,0.00,VWS V14.01,2013-03-16 05:45:00,
2013-03-16 01:50:00,37.6,9.0,29.74,WSW,238,0.0,0.0,30,0.00,,---,0.00,VWS V14.01,2013-03-16 05:50:00,
2013-03-16 01:55:00,37.8,9.1,29.74,WSW,238,0.0,0.0,30,0.00,,---,0.00,VWS V14.01,2013-03-16 05:55:00,
2013-03-16 02:00:00,37.8,9.1,29.74,WSW,238,0.0,0.0,30,0.00,,---,0.00,VWS V14.01,2013-03-16 06:00:00,
2013-03-16 02:05:00,37.9,10.0,29.74,WSW,238,0.0,0.0,31,0.00,,---,0.00,VWS V14.01,2013-03-16 06:05:00,
2013-03-16 02:11:00,37.9,10.0,29.74,WSW,238,0.0,0.0,31,0.00,,---,0.00,VWS V14.01,2013-03-16 06:11:00,
2013-03-16 02:16:00,38.1,10.2,29.74,WSW,238,0.0,0.0,31,0.00,,---,0.00,VWS V14.01,2013-03-16 06:16:00,
2013-03-16 02:21:00,38.1,10.2,29.74,WSW,238,0.0,0.0,31,0.00,,---,0.00,VWS V14.01,2013-03-16 06:21:00,
2013-03-16 02:26:00,38.5,10.5,29.74,WSW,238,0.0,0.0,31,0.00,,---,0.00,VWS V14.01,2013-03-16 06:26:00,
2013-03-16 02:31:00,38.5,10.5,29.74,WSW,238,0.0,0.0,31,0.00,,---,0.00,VWS V14.01,2013-03-16 06:31:00,
2013-03-16 02:36:00,38.7,11.4,29.74,NNE,28,3.1,3.1,32,0.00,,---,0.00,VWS V14.01,2013-03-16 06:36:00,
2013-03-16 02:41:00,38.8,12.2,29.74,NNE,28,0.0,0.0,33,0.00,,---,0.00,VWS V14.01,2013-03-16 06:41:00,
2013-03-16 02:46:00,38.8,12.2,29.77,NNE,28,0.0,0.0,33,0.00,,---,0.00,VWS V14.01,2013-03-16 06:46:00,
2013-03-16 02:51:00,38.8,11.5,29.77,NNE,28,0.0,0.0,32,0.00,,---,0.00,VWS V14.01,2013-03-16 06:51:00,
2013-03-16 02:56:00,38.7,11.4,29.77,NNE,28,0.0,0.0,32,0.00,,---,0.00,VWS V14.01,2013-03-16 06:56:00,
2013-03-16 03:01:00,38.5,11.2,29.77,NNE,28,0.0,0.0,32,0.00,,---,0.00,VWS V14.01,2013-03-16 07:01:00,
2013-03-16 03:06:00,38.3,11.0,29.77,NNE,28,0.0,0.0,32,0.00,,---,0.00,VWS V14.01,2013-03-16 07:06:00,
2013-03-16 03:11:00,38.1,10.9,29.77,NNE,28,0.0,0.0,32,0.00,,---,0.00,VWS V14.01,2013-03-16 07:11:00,
2013-03-16 03:16:00,37.9,11.4,29.77,NNE,28,0.0,0.0,33,0.00,,---,0.00,VWS V14.01,2013-03-16 07:16:00,
2013-03-16 03:21:00,37.9,11.4,29.77,NW,326,2.7,2.7,33,0.00,,---,0.00,VWS V14.01,2013-03-16 07:21:00,
2013-03-16 03:26:00,37.9,12.1,29.77,NNW,331,0.0,0.0,34,0.00,,---,0.00,VWS V14.01,2013-03-16 07:26:00,
2013-03-16 03:31:00,37.8,12.6,29.77,NNW,335,0.0,0.0,35,0.00,,---,0.00,VWS V14.01,2013-03-16 07:31:00,
2013-03-16 03:37:00,37.4,12.3,29.77,NNW,335,0.0,0.0,35,0.00,,---,0.00,VWS V14.01,2013-03-16 07:37:00,
2013-03-16 03:42:00,37.4,12.3,29.77,NNW,335,0.0,0.0,35,0.00,,---,0.00,VWS V14.01,2013-03-16 07:42:00,
2013-03-16 03:47:00,36.9,12.4,29.77,NNW,335,0.0,0.0,36,0.00,,---,0.00,VWS V14.01,2013-03-16 07:47:00,
2013-03-16 03:52:00,36.9,13.6,29.77,NE,55,2.2,2.2,38,0.00,,---,0.00,VWS V14.01,2013-03-16 07:52:00,
2013-03-16 03:57:00,36.9,14.2,29.77,NE,39,4.0,4.0,39,0.00,,---,0.00,VWS V14.01,2013-03-16 07:57:00,
2013-03-16 04:02:00,37.2,15.1,29.77,North,350,5.8,5.8,40,0.00,,---,0.00,VWS V14.01,2013-03-16 08:02:00,
2013-03-16 04:07:00,37.4,15.3,29.77,NW,316,4.0,4.0,40,0.00,,---,0.00,VWS V14.01,2013-03-16 08:07:00,
2013-03-16 04:12:00,37.4,14.7,29.77,NW,311,0.0,0.0,39,0.00,,---,0.00,VWS V14.01,2013-03-16 08:12:00,
2013-03-16 04:17:00,37.4,14.7,29.77,NW,311,0.0,0.0,39,0.00,,---,0.00,VWS V14.01,2013-03-16 08:17:00,
2013-03-16 04:22:00,36.7,14.1,29.77,NW,311,0.0,0.0,39,0.00,,---,0.00,VWS V14.01,2013-03-16 08:22:00,
2013-03-16 04:27:00,36.3,13.8,29.77,NW,311,0.0,0.0,39,0.00,,---,0.00,VWS V14.01,2013-03-16 08:27:00,
2013-03-16 04:32:00,36.0,13.4,29.77,NNW,341,0.0,0.0,39,0.00,,---,0.00,VWS V14.01,2013-03-16 08:32:00,
2013-03-16 04:37:00,35.4,13.5,29.77,NW,326,0.0,0.0,40,0.00,,---,0.00,VWS V14.01,2013-03-16 08:37:00,
2013-03-16 04:42:00,35.4,13.5,29.77,NW,326,0.0,0.0,40,0.00,,---,0.00,VWS V14.01,2013-03-16 08:42:00,
2013-03-16 04:47:00,34.9,13.0,29.77,NW,326,0.0,0.0,40,0.00,,---,0.00,VWS V14.01,2013-03-16 08:47:00,
2013-03-16 04:52:00,34.9,13.0,29.77,NW,326,0.0,0.0,40,0.00,,---,0.00,VWS V14.01,2013-03-16 08:52:00,
2013-03-16 04:57:00,34.9,13.0,29.77,NNW,338,0.0,0.0,40,0.00,,---,0.00,VWS V14.01,2013-03-16 08:57:00,
2013-03-16 05:02:00,35.4,14.1,29.77,NNW,338,0.0,0.0,41,0.00,,---,0.00,VWS V14.01,2013-03-16 09:02:00,
2013-03-16 05:07:00,35.8,13.8,29.77,NNW,341,0.0,0.0,40,0.00,,---,0.00,VWS V14.01,2013-03-16 09:07:00,
2013-03-16 05:12:00,36.0,14.0,29.77,NW,313,0.0,0.0,40,0.00,,---,0.00,VWS V14.01,2013-03-16 09:12:00,
2013-03-16 05:17:00,36.0,14.0,29.80,NE,48,0.0,0.0,40,0.00,,---,0.00,VWS V14.01,2013-03-16 09:17:00,
2013-03-16 05:22:00,36.1,14.2,29.80,North,357,0.0,0.0,40,0.00,,---,0.00,VWS V14.01,2013-03-16 09:22:00,
2013-03-16 05:27:00,36.3,14.3,29.80,North,353,0.0,0.0,40,0.00,,---,0.00,VWS V14.01,2013-03-16 09:27:00,
2013-03-16 05:32:00,36.5,14.5,29.80,NE,34,0.0,0.0,40,0.00,,---,0.00,VWS V14.01,2013-03-16 09:32:00,
2013-03-16 05:37:00,36.5,13.9,29.80,NNE,15,0.0,0.0,39,0.00,,---,0.00,VWS V14.01,2013-03-16 09:37:00,
2013-03-16 05:42:00,36.3,13.8,29.80,North,0,2.7,2.7,39,0.00,,---,0.00,VWS V14.01,2013-03-16 09:42:00,
2013-03-16 05:47:00,36.3,13.2,29.80,NNW,339,2.2,2.2,38,0.00,,---,0.00,VWS V14.01,2013-03-16 09:47:00,
2013-03-16 05:52:00,36.0,11.6,29.80,NNW,335,0.0,0.0,36,0.00,,---,0.00,VWS V14.01,2013-03-16 09:52:00,
2013-03-16 05:57:00,35.8,11.4,29.80,NNW,335,0.0,0.0,36,0.00,,---,0.00,VWS V14.01,2013-03-16 09:57:00,
2013-03-16 06:02:00,35.8,10.8,29.80,NNW,335,0.0,0.0,35,0.00,,---,0.00,VWS V14.01,2013-03-16 10:02:00,
2013-03-16 06:07:00,35.8,10.8,29.80,NNW,340,2.2,2.2,35,0.00,,---,0.00,VWS V14.01,2013-03-16 10:07:00,
2013-03-16 06:12:00,35.6,10.0,29.80,NNW,330,2.2,2.2,34,0.00,,---,0.00,VWS V14.01,2013-03-16 10:12:00,
2013-03-16 06:17:00,35.6,10.0,29.80,North,353,0.0,0.0,34,0.00,,---,0.00,VWS V14.01,2013-03-16 10:17:00,
2013-03-16 06:23:00,35.4,9.9,29.80,NNW,335,0.0,0.0,34,0.00,,---,0.00,VWS V14.01,2013-03-16 10:23:00,
2013-03-16 06:28:00,35.1,9.5,29.80,North,353,0.0,0.0,34,0.00,,---,0.00,VWS V14.01,2013-03-16 10:28:00,
2013-03-16 06:33:00,34.9,9.4,29.80,NNW,344,3.6,3.6,34,0.00,,---,0.00,VWS V14.01,2013-03-16 10:33:00,
2013-03-16 06:38:00,34.9,8.7,29.80,North,7,0.0,0.0,33,0.00,,---,0.00,VWS V14.01,2013-03-16 10:38:00,
2013-03-16 06:43:00,34.7,8.6,29.80,NNE,20,0.0,0.0,33,0.00,,---,0.00,VWS V14.01,2013-03-16 10:43:00,
2013-03-16 06:48:00,34.9,8.7,29.80,North,0,0.0,0.0,33,0.00,,---,0.00,VWS V14.01,2013-03-16 10:48:00,
2013-03-16 06:53:00,34.9,8.7,29.80,NW,326,0.0,0.0,33,0.00,,---,0.00,VWS V14.01,2013-03-16 10:53:00,
2013-03-16 06:58:00,34.9,8.7,29.80,NNW,344,0.0,0.0,33,0.00,,---,0.00,VWS V14.01,2013-03-16 10:58:00,
2013-03-16 07:03:00,34.9,8.0,29.80,NW,310,0.0,0.0,32,0.00,,---,0.00,VWS V14.01,2013-03-16 11:03:00,
2013-03-16 07:08:00,34.9,8.0,29.80,NNW,340,0.0,0.0,32,0.00,,---,0.00,VWS V14.01,2013-03-16 11:08:00,
2013-03-16 07:13:00,35.1,8.2,29.80,NNE,12,2.7,2.7,32,0.00,,---,0.00,VWS V14.01,2013-03-16 11:13:00,
2013-03-16 07:18:00,35.1,8.2,29.80,North,10,0.0,0.0,32,0.00,,---,0.00,VWS V14.01,2013-03-16 11:18:00,
2013-03-16 07:23:00,35.4,7.8,29.80,NNW,348,0.0,0.0,31,0.00,,---,0.00,VWS V14.01,2013-03-16 11:23:00,
2013-03-16 07:28:00,35.6,8.0,29.80,NW,307,0.0,0.0,31,0.00,,---,0.00,VWS V14.01,2013-03-16 11:28:00,
2013-03-16 07:33:00,35.6,8.0,29.80,NW,307,0.0,0.0,31,0.00,,---,0.00,VWS V14.01,2013-03-16 11:33:00,
2013-03-16 07:38:00,35.6,8.0,29.80,NW,307,0.0,0.0,31,0.00,,---,0.00,VWS V14.01,2013-03-16 11:38:00,
2013-03-16 07:43:00,35.8,8.1,29.80,NW,307,0.0,0.0,31,0.00,,---,0.00,VWS V14.01,2013-03-16 11:43:00,
2013-03-16 07:48:00,36.1,7.7,29.80,NW,307,0.0,0.0,30,0.00,,---,0.00,VWS V14.01,2013-03-16 11:48:00,
2013-03-16 07:53:00,36.3,7.9,29.80,WNW,300,0.0,0.0,30,0.00,,---,0.00,VWS V14.01,2013-03-16 11:53:00,
2013-03-16 07:58:00,36.7,8.2,29.80,WNW,300,0.0,0.0,30,0.00,,---,0.00,VWS V14.01,2013-03-16 11:58:00,
2013-03-16 08:03:00,36.9,8.3,29.80,WNW,300,0.0,0.0,30,0.00,,---,0.00,VWS V14.01,2013-03-16 12:03:00,
2013-03-16 08:08:00,36.9,8.3,29.80,WNW,300,0.0,0.0,30,0.00,,---,0.00,VWS V14.01,2013-03-16 12:08:00,
2013-03-16 08:13:00,37.2,8.6,29.80,NW,315,0.0,0.0,30,0.00,,---,0.00,VWS V14.01,2013-03-16 12:13:00,
2013-03-16 08:18:00,37.4,8.1,29.80,NNE,16,0.0,0.0,29,0.00,,---,0.00,VWS V14.01,2013-03-16 12:18:00,
2013-03-16 08:23:00,37.4,8.1,29.80,NNW,338,3.6,3.6,29,0.00,,---,0.00,VWS V14.01,2013-03-16 12:23:00,
2013-03-16 08:28:00,37.6,8.2,29.80,North,8,4.0,4.0,29,0.00,,---,0.00,VWS V14.01,2013-03-16 12:28:00,
2013-03-16 08:33:00,37.6,8.2,29.80,WNW,303,4.0,4.0,29,0.00,,---,0.00,VWS V14.01,2013-03-16 12:33:00,
2013-03-16 08:38:00,37.9,8.5,29.80,NNW,346,2.7,2.7,29,0.00,,---,0.00,VWS V14.01,2013-03-16 12:38:00,
2013-03-16 08:43:00,38.1,8.7,29.80,NE,48,3.1,3.1,29,0.00,,---,0.00,VWS V14.01,2013-03-16 12:43:00,
2013-03-16 08:48:00,38.5,9.0,29.80,NNW,343,3.1,3.1,29,0.00,,---,0.00,VWS V14.01,2013-03-16 12:48:00,
2013-03-16 08:53:00,38.7,9.2,29.80,NNW,348,4.0,4.0,29,0.00,,---,0.00,VWS V14.01,2013-03-16 12:53:00,
2013-03-16 08:58:00,39.0,9.5,29.80,NE,56,3.6,3.6,29,0.00,,---,0.00,VWS V14.01,2013-03-16 12:58:00,
2013-03-16 09:03:00,39.4,9.0,29.80,NW,307,5.4,5.4,28,0.00,,---,0.00,VWS V14.01,2013-03-16 13:03:00,
2013-03-16 09:08:00,39.4,9.0,29.80,NE,48,2.7,2.7,28,0.00,,---,0.00,VWS V14.01,2013-03-16 13:08:00,
2013-03-16 09:13:00,39.9,7.8,29.80,ENE,77,2.7,2.7,26,0.00,,---,0.00,VWS V14.01,2013-03-16 13:13:00,
2013-03-16 09:18:00,39.9,7.8,29.80,NE,41,2.7,2.7,26,0.00,,---,0.00,VWS V14.01,2013-03-16 13:18:00,
2013-03-16 09:23:00,40.6,5.8,29.80,ENE,57,4.0,4.0,23,0.00,,---,0.00,VWS V14.01,2013-03-16 13:23:00,
2013-03-16 09:28:00,41.0,6.1,29.80,NE,55,5.4,5.4,23,0.00,,---,0.00,VWS V14.01,2013-03-16 13:28:00,
2013-03-16 09:33:00,41.0,6.1,29.80,North,353,7.6,7.6,23,0.00,,---,0.00,VWS V14.01,2013-03-16 13:33:00,
2013-03-16 09:38:00,41.2,4.2,29.80,NE,44,8.1,8.1,21,0.00,,---,0.00,VWS V14.01,2013-03-16 13:38:00,
2013-03-16 09:43:00,41.2,4.2,29.80,NE,35,0.0,0.0,21,0.00,,---,0.00,VWS V14.01,2013-03-16 13:43:00,
2013-03-16 09:48:00,41.5,4.5,29.80,NE,56,7.6,7.6,21,0.00,,---,0.00,VWS V14.01,2013-03-16 13:48:00,
2013-03-16 09:53:00,41.5,4.5,29.80,NNE,28,3.6,3.6,21,0.00,,---,0.00,VWS V14.01,2013-03-16 13:53:00,
2013-03-16 09:58:00,41.5,4.5,29.80,ENE,60,3.1,3.1,21,0.00,,---,0.00,VWS V14.01,2013-03-16 13:58:00,
2013-03-16 10:03:00,42.1,1.6,29.80,NE,41,5.4,5.4,18,0.00,,---,0.00,VWS V14.01,2013-03-16 14:03:00,
2013-03-16 10:08:00,42.1,1.6,29.80,North,0,3.1,3.1,18,0.00,,---,0.00,VWS V14.01,2013-03-16 14:08:00,
2013-03-16 10:13:00,41.7,1.4,29.80,NE,39,3.6,3.6,18,0.00,,---,0.00,VWS V14.01,2013-03-16 14:13:00,
2013-03-16 10:18:00,41.7,1.4,29.80,NNE,26,0.0,0.0,18,0.00,,---,0.00,VWS V14.01,2013-03-16 14:18:00,
2013-03-16 10:23:00,41.7,1.4,29.80,ENE,64,5.4,5.4,18,0.00,,---,0.00,VWS V14.01,2013-03-16 14:23:00,
2013-03-16 10:28:00,41.7,1.4,29.80,NE,34,3.6,3.6,18,0.00,,---,0.00,VWS V14.01,2013-03-16 14:28:00,
2013-03-16 10:33:00,41.9,1.5,29.80,NNE,25,5.4,5.4,18,0.00,,---,0.00,VWS V14.01,2013-03-16 14:33:00,
2013-03-16 10:38:00,41.9,1.5,29.80,NNE,23,4.0,4.0,18,0.00,,---,0.00,VWS V14.01,2013-03-16 14:38:00,
2013-03-16 10:44:00,42.1,1.6,29.80,NE,38,4.9,4.9,18,0.00,,---,0.00,VWS V14.01,2013-03-16 14:44:00,
2013-03-16 10:48:00,42.1,1.6,29.80,NNE,13,2.7,2.7,18,0.00,,---,0.00,VWS V14.01,2013-03-16 14:48:00,
2013-03-16 10:53:00,42.4,1.9,29.80,NNE,17,5.4,5.4,18,0.00,,---,0.00,VWS V14.01,2013-03-16 14:53:00,
2013-03-16 10:59:00,42.3,1.8,29.83,NE,50,4.0,4.0,18,0.00,,---,0.00,VWS V14.01,2013-03-16 14:59:00,
2013-03-16 11:04:00,41.7,1.4,29.83,NE,38,2.2,2.2,18,0.00,,---,0.00,VWS V14.01,2013-03-16 15:04:00,
2013-03-16 11:09:00,41.7,1.4,29.83,ENE,72,3.6,3.6,18,0.00,,---,0.00,VWS V14.01,2013-03-16 15:09:00,
2013-03-16 11:14:00,41.9,1.5,29.83,ENE,77,4.9,4.9,18,0.00,,---,0.00,VWS V14.01,2013-03-16 15:14:00,
2013-03-16 11:19:00,41.9,1.5,29.80,NE,50,4.0,4.0,18,0.00,,---,0.00,VWS V14.01,2013-03-16 15:19:00,
2013-03-16 11:24:00,42.3,1.8,29.80,East,93,8.3,8.3,18,0.00,,---,0.00,VWS V14.01,2013-03-16 15:24:00,
2013-03-16 11:29:00,42.3,1.8,29.80,East,85,6.3,6.3,18,0.00,,---,0.00,VWS V14.01,2013-03-16 15:29:00,
2013-03-16 11:34:00,42.8,2.2,29.80,ENE,74,7.6,7.6,18,0.00,,---,0.00,VWS V14.01,2013-03-16 15:34:00,
2013-03-16 11:39:00,42.8,2.2,29.80,East,97,2.7,2.7,18,0.00,,---,0.00,VWS V14.01,2013-03-16 15:39:00,
2013-03-16 11:44:00,42.8,2.2,29.80,East,93,3.6,3.6,18,0.00,,---,0.00,VWS V14.01,2013-03-16 15:44:00,
2013-03-16 11:49:00,42.3,1.8,29.80,ENE,60,3.1,3.1,18,0.00,,---,0.00,VWS V14.01,2013-03-16 15:49:00,
2013-03-16 11:54:00,42.3,1.8,29.80,East,92,2.7,2.7,18,0.00,,---,0.00,VWS V14.01,2013-03-16 15:54:00,
2013-03-16 11:59:00,42.1,1.6,29.83,NNE,14,3.1,3.1,18,0.00,,---,0.00,VWS V14.01,2013-03-16 15:59:00,
2013-03-16 12:04:00,42.1,1.6,29.83,ENE,71,3.6,3.6,18,0.00,,---,0.00,VWS V14.01,2013-03-16 16:04:00,
2013-03-16 12:09:00,42.1,1.6,29.83,ENE,67,0.0,0.0,18,0.00,,---,0.00,VWS V14.01,2013-03-16 16:09:00,
2013-03-16 12:14:00,42.1,5.0,29.83,ENE,71,5.8,5.8,21,0.00,,---,0.00,VWS V14.01,2013-03-16 16:14:00,
2013-03-16 12:19:00,42.1,5.0,29.83,South,179,3.1,3.1,21,0.00,,---,0.00,VWS V14.01,2013-03-16 16:19:00,
2013-03-16 12:24:00,42.1,5.0,29.83,NE,41,3.1,3.1,21,0.00,,---,0.00,VWS V14.01,2013-03-16 16:24:00,
2013-03-16 12:29:00,42.1,5.0,29.83,NE,38,4.0,4.0,21,0.00,,---,0.00,VWS V14.01,2013-03-16 16:29:00,
2013-03-16 12:34:00,41.7,6.7,29.80,ENE,69,3.6,3.6,23,0.00,,---,0.00,VWS V14.01,2013-03-16 16:34:00,
2013-03-16 12:39:00,41.4,9.1,29.80,ENE,77,4.9,4.9,26,0.00,,---,0.00,VWS V14.01,2013-03-16 16:39:00,
2013-03-16 12:44:00,41.4,9.1,29.80,SE,135,4.0,4.0,26,0.00,,---,0.00,VWS V14.01,2013-03-16 16:44:00,
2013-03-16 12:49:00,41.2,12.1,29.80,ENE,72,4.9,4.9,30,0.00,,---,0.00,VWS V14.01,2013-03-16 16:49:00,
2013-03-16 12:54:00,41.2,12.1,29.80,ENE,69,5.8,5.8,30,0.00,,---,0.00,VWS V14.01,2013-03-16 16:54:00,
2013-03-16 12:59:00,40.3,14.8,29.80,ENE,75,5.4,5.4,35,0.00,,---,0.00,VWS V14.01,2013-03-16 16:59:00,
2013-03-16 13:04:00,40.3,14.8,29.80,ENE,65,2.7,2.7,35,0.00,,---,0.00,VWS V14.01,2013-03-16 17:04:00,
2013-03-16 13:09:00,39.4,16.5,29.80,East,100,4.9,4.9,39,0.00,,---,0.00,VWS V14.01,2013-03-16 17:09:00,
2013-03-16 13:14:00,38.1,15.9,29.80,ENE,70,3.6,3.6,40,0.00,,---,0.00,VWS V14.01,2013-03-16 17:14:00,
2013-03-16 13:19:00,37.9,16.4,29.80,East,97,3.1,3.1,41,0.00,,---,0.00,VWS V14.01,2013-03-16 17:19:00,
2013-03-16 13:24:00,37.8,16.2,29.80,ENE,68,3.6,3.6,41,0.00,,---,0.00,VWS V14.01,2013-03-16 17:24:00,
2013-03-16 13:29:00,37.8,16.2,29.80,NE,39,4.0,4.0,41,0.00,,---,0.00,VWS V14.01,2013-03-16 17:29:00,
2013-03-16 13:34:00,37.6,16.6,29.80,NE,46,3.6,3.6,42,0.00,,---,0.00,VWS V14.01,2013-03-16 17:34:00,
2013-03-16 13:39:00,37.4,17.5,29.80,NE,42,5.4,5.4,44,0.00,,---,0.00,VWS V14.01,2013-03-16 17:39:00,
2013-03-16 13:44:00,37.0,17.2,29.80,ENE,66,3.6,3.6,44,0.00,,---,0.00,VWS V14.01,2013-03-16 17:44:00,
2013-03-16 13:50:00,37.0,17.2,29.80,East,86,5.8,5.8,44,0.00,,---,0.00,VWS V14.01,2013-03-16 17:50:00,
2013-03-16 13:55:00,37.0,17.2,29.80,ENE,62,5.8,5.8,44,0.00,,---,0.00,VWS V14.01,2013-03-16 17:55:00,
2013-03-16 14:00:00,36.5,17.7,29.80,East,85,2.2,2.2,46,0.00,,---,0.00,VWS V14.01,2013-03-16 18:00:00,
2013-03-16 14:05:00,36.5,18.7,29.80,NE,43,2.7,2.7,48,0.00,,---,0.00,VWS V14.01,2013-03-16 18:05:00,
2013-03-16 14:10:00,36.5,18.7,29.77,NE,38,6.3,6.3,48,0.00,,---,0.00,VWS V14.01,2013-03-16 18:10:00,
2013-03-16 14:15:00,36.5,18.7,29.77,NE,45,0.0,0.0,48,0.00,,---,0.00,VWS V14.01,2013-03-16 18:15:00,
2013-03-16 14:20:00,36.5,18.7,29.77,East,81,5.8,5.8,48,0.00,,---,0.00,VWS V14.01,2013-03-16 18:20:00,
2013-03-16 14:25:00,36.9,20.0,29.77,NNW,337,0.0,0.0,50,0.00,,---,0.00,VWS V14.01,2013-03-16 18:25:00,
2013-03-16 14:30:00,36.9,20.0,29.77,NE,51,5.4,5.4,50,0.00,,---,0.00,VWS V14.01,2013-03-16 18:30:00,
2013-03-16 14:35:00,36.7,19.8,29.77,NE,41,4.0,4.0,50,0.00,,---,0.00,VWS V14.01,2013-03-16 18:35:00,
2013-03-16 14:40:00,36.7,19.8,29.77,East,82,3.6,3.6,50,0.00,,---,0.00,VWS V14.01,2013-03-16 18:40:00,
2013-03-16 14:45:00,36.7,19.8,29.77,ENE,67,4.0,4.0,50,0.00,,---,0.00,VWS V14.01,2013-03-16 18:45:00,
2013-03-16 14:50:00,36.7,20.3,29.77,ENE,78,6.3,6.3,51,0.00,,---,0.00,VWS V14.01,2013-03-16 18:50:00,
2013-03-16 14:55:00,36.3,20.4,29.77,NE,37,3.1,3.1,52,0.00,,---,0.00,VWS V14.01,2013-03-16 18:55:00,
2013-03-16 15:00:00,36.3,20.4,29.77,NNE,28,6.7,6.7,52,0.00,,---,0.00,VWS V14.01,2013-03-16 19:00:00,
2013-03-16 15:05:00,36.3,20.4,29.77,NNE,15,7.6,7.6,52,0.00,,---,0.00,VWS V14.01,2013-03-16 19:05:00,
2013-03-16 15:10:00,36.3,20.4,29.77,NNE,33,8.1,8.1,52,0.00,,---,0.00,VWS V14.01,2013-03-16 19:10:00,
2013-03-16 15:15:00,35.8,20.3,29.77,ENE,62,4.0,4.0,53,0.00,,---,0.00,VWS V14.01,2013-03-16 19:15:00,
2013-03-16 15:20:00,35.8,20.8,29.77,ENE,66,2.7,2.7,54,0.00,,---,0.00,VWS V14.01,2013-03-16 19:20:00,
2013-03-16 15:28:00,35.6,20.2,29.77,ENE,62,4.0,4.0,53,0.00,,---,0.00,VWS V14.01,2013-03-16 19:28:00,
2013-03-16 15:33:00,35.2,20.3,29.77,NE,55,3.1,3.1,54,0.00,,---,0.00,VWS V14.01,2013-03-16 19:33:00,
2013-03-16 15:38:00,35.2,20.3,29.77,ENE,67,3.6,3.6,54,0.00,,---,0.00,VWS V14.01,2013-03-16 19:38:00,
2013-03-16 15:43:00,35.1,20.5,29.77,NE,41,3.1,3.1,55,0.00,,---,0.00,VWS V14.01,2013-03-16 19:43:00,
2013-03-16 15:48:00,35.1,20.5,29.77,ENE,57,3.1,3.1,55,0.00,,---,0.00,VWS V14.01,2013-03-16 19:48:00,
2013-03-16 15:53:00,34.5,20.5,29.74,East,92,4.0,4.0,56,0.00,,---,0.00,VWS V14.01,2013-03-16 19:53:00,
2013-03-16 15:58:00,34.5,20.9,29.74,NE,49,5.8,5.8,57,0.00,,---,0.00,VWS V14.01,2013-03-16 19:58:00,
2013-03-16 16:03:00,34.5,20.9,29.74,NE,55,4.0,4.0,57,0.00,,---,0.00,VWS V14.01,2013-03-16 20:03:00,
2013-03-16 16:08:00,34.3,21.5,29.74,NNE,23,3.6,3.6,59,0.00,,---,0.00,VWS V14.01,2013-03-16 20:08:00,
2013-03-16 16:13:00,34.3,21.5,29.74,NE,38,3.6,3.6,59,0.00,,---,0.00,VWS V14.01,2013-03-16 20:13:00,
2013-03-16 16:18:00,34.3,22.3,29.74,East,79,5.8,5.8,61,0.00,,---,0.00,VWS V14.01,2013-03-16 20:18:00,
2013-03-16 16:23:00,34.3,23.1,29.74,NNE,21,8.1,8.1,63,0.00,,---,0.00,VWS V14.01,2013-03-16 20:23:00,
2013-03-16 16:28:00,34.3,23.4,29.74,NNE,26,8.1,8.1,64,0.00,,---,0.00,VWS V14.01,2013-03-16 20:28:00,
2013-03-16 16:33:00,34.3,23.4,29.74,East,79,7.6,7.6,64,0.00,,---,0.00,VWS V14.01,2013-03-16 20:33:00,
2013-03-16 16:38:00,34.3,23.8,29.74,East,79,7.6,7.6,65,0.00,,---,0.00,VWS V14.01,2013-03-16 20:38:00,
2013-03-16 16:43:00,34.2,24.0,29.74,NNE,32,2.7,2.7,66,0.00,,---,0.00,VWS V14.01,2013-03-16 20:43:00,
2013-03-16 16:48:00,34.2,24.0,29.74,ENE,75,4.0,4.0,66,0.00,,---,0.00,VWS V14.01,2013-03-16 20:48:00,
2013-03-16 16:53:00,34.2,24.4,29.74,NE,48,4.9,4.9,67,0.00,,---,0.00,VWS V14.01,2013-03-16 20:53:00,
2013-03-16 16:58:00,34.2,24.4,29.74,NE,55,3.6,3.6,67,0.00,,---,0.00,VWS V14.01,2013-03-16 20:58:00,
2013-03-16 17:03:00,34.2,24.4,29.74,ENE,63,5.4,5.4,67,0.00,,---,0.00,VWS V14.01,2013-03-16 21:03:00,
2013-03-16 17:08:00,34.2,24.7,29.74,ENE,58,2.7,2.7,68,0.00,,---,0.00,VWS V14.01,2013-03-16 21:08:00,
2013-03-16 17:13:00,34.2,24.7,29.74,NE,34,3.6,3.6,68,0.00,,---,0.00,VWS V14.01,2013-03-16 21:13:00,
2013-03-16 17:18:00,34.2,24.7,29.74,NE,34,3.6,3.6,68,0.00,,---,0.00,VWS V14.01,2013-03-16 21:18:00,
2013-03-16 17:23:00,34.2,24.7,29.74,ENE,64,3.1,3.1,68,0.00,,---,0.00,VWS V14.01,2013-03-16 21:23:00,
2013-03-16 17:28:00,34.3,25.2,29.74,ENE,68,5.8,5.8,69,0.00,,---,0.00,VWS V14.01,2013-03-16 21:28:00,
2013-03-16 17:33:00,34.3,25.2,29.74,ENE,63,8.1,8.1,69,0.00,,---,0.00,VWS V14.01,2013-03-16 21:33:00,
2013-03-16 17:38:00,34.2,25.1,29.74,NE,47,3.6,3.6,69,0.00,,---,0.00,VWS V14.01,2013-03-16 21:38:00,
2013-03-16 17:43:00,34.2,25.4,29.74,NE,50,2.2,2.2,70,0.00,,---,0.00,VWS V14.01,2013-03-16 21:43:00,
2013-03-16 17:48:00,34.2,25.4,29.74,NE,41,5.8,5.8,70,0.00,,---,0.00,VWS V14.01,2013-03-16 21:48:00,
2013-03-16 17:53:00,34.2,25.4,29.74,NE,43,3.6,3.6,70,0.00,,---,0.00,VWS V14.01,2013-03-16 21:53:00,
2013-03-16 17:58:00,34.2,25.4,29.74,ENE,65,4.9,4.9,70,0.00,,---,0.00,VWS V14.01,2013-03-16 21:58:00,
2013-03-16 18:03:00,34.0,25.2,29.74,NE,45,2.7,2.7,70,0.00,,---,0.00,VWS V14.01,2013-03-16 22:03:00,
2013-03-16 18:08:00,34.0,25.2,29.74,East,83,3.1,3.1,70,0.00,,---,0.00,VWS V14.01,2013-03-16 22:08:00,
2013-03-16 18:13:00,34.0,25.2,29.74,NNE,24,4.9,4.9,70,0.00,,---,0.00,VWS V14.01,2013-03-16 22:13:00,
2013-03-16 18:18:00,34.2,25.4,29.74,NNE,31,6.3,6.3,70,0.00,,---,0.00,VWS V14.01,2013-03-16 22:18:00,
2013-03-16 18:23:00,34.2,25.4,29.74,NNE,31,6.3,6.3,70,0.00,,---,0.00,VWS V14.01,2013-03-16 22:23:00,
2013-03-16 18:28:00,34.2,25.8,29.74,East,81,4.5,4.5,71,0.00,,---,0.00,VWS V14.01,2013-03-16 22:28:00,
2013-03-16 18:33:00,34.2,25.8,29.74,ENE,60,4.5,4.5,71,0.00,,---,0.00,VWS V14.01,2013-03-16 22:33:00,
2013-03-16 18:38:00,34.2,25.8,29.74,ENE,60,4.5,4.5,71,0.00,,---,0.00,VWS V14.01,2013-03-16 22:38:00,
2013-03-16 18:43:00,34.2,25.8,29.74,NNE,29,2.7,2.7,71,0.00,,---,0.00,VWS V14.01,2013-03-16 22:43:00,
2013-03-16 18:48:00,34.2,25.8,29.74,NNE,29,2.7,2.7,71,0.00,,---,0.00,VWS V14.01,2013-03-16 22:48:00,
2013-03-16 18:53:00,34.3,25.9,29.74,NNE,33,3.6,3.6,71,0.00,,---,0.00,VWS V14.01,2013-03-16 22:53:00,
2013-03-16 18:58:00,34.3,25.9,29.74,ENE,71,3.6,3.6,71,0.00,,---,0.00,VWS V14.01,2013-03-16 22:58:00,
2013-03-16 19:03:00,34.3,25.9,29.74,ENE,61,3.1,3.1,71,0.00,,---,0.00,VWS V14.01,2013-03-16 23:03:00,
2013-03-16 19:08:00,34.3,25.9,29.74,NNE,33,4.0,4.0,71,0.00,,---,0.00,VWS V14.01,2013-03-16 23:08:00,
2013-03-16 19:13:00,34.3,26.3,29.77,ENE,61,2.7,2.7,72,0.00,,---,0.00,VWS V14.01,2013-03-16 23:13:00,
2013-03-16 19:18:00,34.3,26.3,29.77,ENE,73,3.1,3.1,72,0.00,,---,0.00,VWS V14.01,2013-03-16 23:18:00,
2013-03-16 19:23:00,34.3,26.3,29.77,ENE,57,3.6,3.6,72,0.00,,---,0.00,VWS V14.01,2013-03-16 23:23:00,
2013-03-16 19:28:00,34.3,26.3,29.77,ENE,57,3.6,3.6,72,0.00,,---,0.00,VWS V14.01,2013-03-16 23:28:00,
2013-03-16 19:34:00,34.3,26.3,29.77,ENE,61,6.3,6.3,72,0.00,,---,0.00,VWS V14.01,2013-03-16 23:34:00,
2013-03-16 19:39:00,34.5,26.4,29.77,ENE,76,3.1,3.1,72,0.00,,---,0.00,VWS V14.01,2013-03-16 23:39:00,
2013-03-16 19:44:00,34.5,26.4,29.77,ENE,76,3.1,3.1,72,0.00,,---,0.00,VWS V14.01,2013-03-16 23:44:00,
2013-03-16 19:49:00,34.5,26.4,29.77,NNE,24,3.1,3.1,72,0.00,,---,0.00,VWS V14.01,2013-03-16 23:49:00,
2013-03-16 19:54:00,34.5,26.4,29.77,ENE,72,4.0,4.0,72,0.00,,---,0.00,VWS V14.01,2013-03-16 23:54:00,
2013-03-16 19:59:00,34.5,26.4,29.77,ENE,59,2.2,2.2,72,0.00,,---,0.00,VWS V14.01,2013-03-16 23:59:00,
2013-03-16 20:04:00,34.5,26.4,29.77,NE,41,3.1,3.1,72,0.00,,---,0.00,VWS V14.01,2013-03-17 00:04:00,
2013-03-16 20:09:00,34.5,26.4,29.77,NE,40,3.6,3.6,72,0.00,,---,0.00,VWS V14.01,2013-03-17 00:09:00,
2013-03-16 20:14:00,34.5,26.4,29.77,NNE,25,0.0,0.0,72,0.00,,---,0.00,VWS V14.01,2013-03-17 00:14:00,
2013-03-16 20:19:00,34.5,26.4,29.77,NNE,25,4.0,4.0,72,0.00,,---,0.00,VWS V14.01,2013-03-17 00:19:00,
2013-03-16 20:24:00,34.5,26.4,29.77,NNW,344,2.7,2.7,72,0.00,,---,0.00,VWS V14.01,2013-03-17 00:24:00,
2013-03-16 20:29:00,34.5,26.4,29.80,NNE,21,4.9,4.9,72,0.00,,---,0.00,VWS V14.01,2013-03-17 00:29:00,
2013-03-16 20:34:00,34.5,26.4,29.80,NNE,21,0.0,0.0,72,0.00,,---,0.00,VWS V14.01,2013-03-17 00:34:00,
2013-03-16 20:39:00,34.5,26.4,29.80,NNE,20,0.0,0.0,72,0.00,,---,0.00,VWS V14.01,2013-03-17 00:39:00,
2013-03-16 20:44:00,34.5,26.4,29.80,NNE,20,2.7,2.7,72,0.00,,---,0.00,VWS V14.01,2013-03-17 00:44:00,
2013-03-16 20:49:00,34.5,26.4,29.80,NNE,20,0.0,0.0,72,0.00,,---,0.00,VWS V14.01,2013-03-17 00:49:00,
2013-03-16 20:54:00,34.5,26.4,29.80,NNE,20,3.1,3.1,72,0.00,,---,0.00,VWS V14.01,2013-03-17 00:54:00,
2013-03-16 20:59:00,34.5,26.4,29.80,NNE,20,0.0,0.0,72,0.00,,---,0.00,VWS V14.01,2013-03-17 00:59:00,
2013-03-16 21:04:00,34.5,26.4,29.80,NNE,20,3.1,3.1,72,0.00,,---,0.00,VWS V14.01,2013-03-17 01:04:00,
2013-03-16 21:09:00,34.5,26.4,29.80,NNE,18,0.0,0.0,72,0.00,,---,0.00,VWS V14.01,2013-03-17 01:09:00,
2013-03-16 21:14:00,34.5,26.4,29.83,NNE,18,0.0,0.0,72,0.00,,---,0.00,VWS V14.01,2013-03-17 01:14:00,
2013-03-16 21:19:00,34.5,26.4,29.83,NW,326,0.0,0.0,72,0.00,,---,0.00,VWS V14.01,2013-03-17 01:19:00,
2013-03-16 21:24:00,34.5,26.4,29.83,NW,310,4.0,4.0,72,0.00,,---,0.00,VWS V14.01,2013-03-17 01:24:00,
2013-03-16 21:29:00,34.5,26.4,29.83,North,8,2.7,2.7,72,0.00,,---,0.00,VWS V14.01,2013-03-17 01:29:00,
2013-03-16 21:34:00,34.3,26.3,29.83,North,357,0.0,0.0,72,0.00,,---,0.00,VWS V14.01,2013-03-17 01:34:00,
2013-03-16 21:39:00,34.3,26.3,29.83,North,0,3.1,3.1,72,0.00,,---,0.00,VWS V14.01,2013-03-17 01:39:00,
2013-03-16 21:44:00,34.3,26.3,29.83,North,350,2.7,2.7,72,0.00,,---,0.00,VWS V14.01,2013-03-17 01:44:00,
2013-03-16 21:49:00,34.3,26.3,29.83,NNW,329,2.7,2.7,72,0.00,,---,0.00,VWS V14.01,2013-03-17 01:49:00,
2013-03-16 21:54:00,34.3,26.3,29.83,North,0,2.7,2.7,72,0.00,,---,0.00,VWS V14.01,2013-03-17 01:54:00,
2013-03-16 21:59:00,34.3,26.3,29.83,NNW,333,0.0,0.0,72,0.00,,---,0.00,VWS V14.01,2013-03-17 01:59:00,
2013-03-16 22:04:00,34.3,26.3,29.83,NNW,332,0.0,0.0,72,0.00,,---,0.00,VWS V14.01,2013-03-17 02:04:00,
2013-03-16 22:09:00,34.3,26.3,29.83,NNW,328,0.0,0.0,72,0.00,,---,0.00,VWS V14.01,2013-03-17 02:09:00,
2013-03-16 22:14:00,34.3,26.3,29.83,NNW,328,3.1,3.1,72,0.00,,---,0.00,VWS V14.01,2013-03-17 02:14:00,
2013-03-16 22:19:00,34.3,26.3,29.83,NW,315,0.0,0.0,72,0.00,,---,0.00,VWS V14.01,2013-03-17 02:19:00,
2013-03-16 22:24:00,34.3,26.3,29.83,NNW,330,0.0,0.0,72,0.00,,---,0.00,VWS V14.01,2013-03-17 02:24:00,
2013-03-16 22:29:00,34.3,26.3,29.83,WNW,303,0.0,0.0,72,0.00,,---,0.00,VWS V14.01,2013-03-17 02:29:00,
2013-03-16 22:34:00,34.3,25.9,29.83,WNW,303,0.0,0.0,71,0.00,,---,0.00,VWS V14.01,2013-03-17 02:34:00,
2013-03-16 22:39:00,34.3,25.9,29.83,North,2,0.0,0.0,71,0.00,,---,0.00,VWS V14.01,2013-03-17 02:39:00,
2013-03-16 22:44:00,34.3,25.9,29.83,North,5,2.2,2.2,71,0.00,,---,0.00,VWS V14.01,2013-03-17 02:44:00,
2013-03-16 22:49:00,34.3,26.3,29.83,NW,321,2.7,2.7,72,0.00,,---,0.00,VWS V14.01,2013-03-17 02:49:00,
2013-03-16 22:54:00,34.3,25.9,29.83,NW,321,2.7,2.7,71,0.00,,---,0.00,VWS V14.01,2013-03-17 02:54:00,
2013-03-16 22:59:00,34.3,25.9,29.85,NNW,335,3.1,3.1,71,0.00,,---,0.00,VWS V14.01,2013-03-17 02:59:00,
2013-03-16 23:04:00,34.3,25.9,29.85,North,7,0.0,0.0,71,0.00,,---,0.00,VWS V14.01,2013-03-17 03:04:00,
2013-03-16 23:09:00,34.3,25.9,29.85,North,7,0.0,0.0,71,0.00,,---,0.00,VWS V14.01,2013-03-17 03:09:00,
2013-03-16 23:14:00,34.3,25.9,29.85,NW,309,0.0,0.0,71,0.00,,---,0.00,VWS V14.01,2013-03-17 03:14:00,
2013-03-16 23:19:00,34.3,25.9,29.85,NW,309,0.0,0.0,71,0.00,,---,0.00,VWS V14.01,2013-03-17 03:19:00,
2013-03-16 23:24:00,34.3,25.9,29.85,NW,309,2.2,2.2,71,0.00,,---,0.00,VWS V14.01,2013-03-17 03:24:00,
2013-03-16 23:29:00,34.3,25.9,29.85,NW,313,3.6,3.6,71,0.00,,---,0.00,VWS V14.01,2013-03-17 03:29:00,
2013-03-16 23:34:00,34.3,25.9,29.85,NW,308,2.7,2.7,71,0.00,,---,0.00,VWS V14.01,2013-03-17 03:34:00,
2013-03-16 23:39:00,34.3,25.9,29.85,NW,308,0.0,0.0,71,0.00,,---,0.00,VWS V14.01,2013-03-17 03:39:00,
2013-03-16 23:44:00,34.3,25.9,29.85,NW,314,0.0,0.0,71,0.00,,---,0.00,VWS V14.01,2013-03-17 03:44:00,
2013-03-16 23:49:00,34.3,25.9,29.88,NW,319,0.0,0.0,71,0.00,,---,0.00,VWS V14.01,2013-03-17 03:49:00,
2013-03-16 23:54:00,34.3,25.9,29.88,NW,319,0.0,0.0,71,0.00,,---,0.00,VWS V14.01,2013-03-17 03:54:00,
2013-03-16 23:59:00,34.3,25.9,29.88,NW,319,3.1,3.1,71,0.00,,---,0.00,VWS V14.01,2013-03-17 03:59:00,